2014-11-22 00:01:27 r, 18.77m,0000000003Hz,0000176498c,0000000.383s, 014.5C,00002191
2014-11-22 00:11:28 r, 18.75m,0000000003Hz,0000173690c,0000000.377s, 014.5C,00002191
2014-11-22 00:21:27 r, 18.72m,0000000002Hz,0000168905c,0000000.367s, 014.5C,00002191
2014-11-22 00:31:29 r, 18.73m,0000000003Hz,0000171930c,0000000.373s, 014.5C,00002191
2014-11-22 00:41:27 r, 18.72m,0000000003Hz,0000168979c,0000000.367s, 014.5C,00002191
2014-11-22 00:51:27 r, 18.75m,0000000003Hz,0000173670c,0000000.377s, 014.5C,00002191
2014-11-22 01:01:27 r, 18.78m,0000000002Hz,0000178655c,0000000.388s, 014.5C,00002191
2014-11-22 01:11:28 r, 18.89m,0000000003Hz,0000197633c,0000000.429s, 014.5C,00002191
2014-11-22 01:21:27 r, 18.84m,0000000003Hz,0000189056c,0000000.410s, 014.5C,00002191
2014-11-22 01:31:32 r, 18.86m,0000000003Hz,0000191062c,0000000.415s, 014.5C,00002191
2014-11-22 01:41:27 r, 18.89m,0000000002Hz,0000197003c,0000000.428s, 014.5C,00002191
2014-11-22 01:51:28 r, 18.83m,0000000002Hz,0000185610c,0000000.403s, 014.5C,00002191
2014-11-22 02:01:29 r, 18.85m,0000000002Hz,0000189811c,0000000.412s, 014.5C,00002191
2014-11-22 02:11:30 r, 18.82m,0000000002Hz,0000184560c,0000000.401s, 014.1C,00002191
2014-11-22 02:21:27 r, 18.82m,0000000002Hz,0000185056c,0000000.402s, 014.1C,00002191
2014-11-22 02:31:29 r, 18.78m,0000000003Hz,0000178473c,0000000.387s, 014.5C,00002191
2014-11-22 02:41:27 r, 18.80m,0000000003Hz,0000180453c,0000000.392s, 014.5C,00002191
2014-11-22 02:51:30 r, 18.73m,0000000003Hz,0000171771c,0000000.373s, 014.1C,00002191
2014-11-22 03:01:30 r, 18.74m,0000000002Hz,0000172799c,0000000.375s, 014.5C,00002191
2014-11-22 03:11:29 r, 18.79m,0000000003Hz,0000180178c,0000000.391s, 014.5C,00002191
2014-11-22 03:21:27 r, 18.84m,0000000002Hz,0000188919c,0000000.410s, 014.5C,00002191
2014-11-22 03:31:29 r, 18.93m,0000000002Hz,0000204606c,0000000.444s, 014.5C,00002191
2014-11-22 03:41:28 r, 19.02m,0000000002Hz,0000221758c,0000000.481s, 014.5C,00002191
2014-11-22 03:51:28 r, 18.93m,0000000002Hz,0000204412c,0000000.444s, 014.5C,00002191
2014-11-22 04:01:27 r, 18.80m,0000000002Hz,0000181474c,0000000.394s, 014.1C,00002191
2014-11-22 04:11:27 r, 18.76m,0000000003Hz,0000174774c,0000000.379s, 014.1C,00002191
2014-11-22 04:21:27 r, 18.80m,0000000003Hz,0000181304c,0000000.393s, 014.1C,00002191
2014-11-22 04:31:30 r, 18.91m,0000000003Hz,0000201648c,0000000.438s, 013.8C,00002191
2014-11-22 04:41:32 r, 18.91m,0000000002Hz,0000199523c,0000000.433s, 013.5C,00002191
2014-11-22 04:51:29 r, 18.98m,0000000003Hz,0000213081c,0000000.462s, 013.5C,00002191
2014-11-22 05:01:29 r, 18.85m,0000000002Hz,0000190046c,0000000.412s, 013.5C,00002191
2014-11-22 05:11:27 r, 18.86m,0000000003Hz,0000191020c,0000000.415s, 013.2C,00002191
2014-11-22 05:21:37 r, 18.86m,0000000002Hz,0000190158c,0000000.413s, 013.2C,00002191
2014-11-22 05:31:29 r, 18.94m,0000000002Hz,0000204515c,0000000.444s, 013.2C,00002191
2014-11-22 05:41:29 r, 18.76m,0000000003Hz,0000174747c,0000000.379s, 013.2C,00002191
2014-11-22 05:51:28 r, 18.81m,0000000003Hz,0000181300c,0000000.393s, 013.2C,00002191
2014-11-22 06:01:28 r, 18.82m,0000000002Hz,0000182278c,0000000.396s, 013.2C,00002191
2014-11-22 06:11:28 r, 18.82m,0000000002Hz,0000183362c,0000000.398s, 013.2C,00002191
2014-11-22 06:21:28 r, 18.78m,0000000003Hz,0000176622c,0000000.383s, 012.8C,00002191
2014-11-22 06:31:28 r, 18.71m,0000000003Hz,0000166249c,0000000.361s, 012.8C,00002191
2014-11-22 06:41:29 r, 18.40m,0000000004Hz,0000125626c,0000000.273s, 012.5C,00002191
2014-11-22 06:51:27 r, 17.59m,0000000008Hz,0000059857c,0000000.130s, 012.5C,00002191
2014-11-22 07:01:28 r, 15.71m,0000000043Hz,0000010520c,0000000.023s, 012.2C,00002191
2014-11-22 07:11:28 r, 13.84m,0000000246Hz,0000000000c,0000000.000s, 011.9C,00002191
2014-11-22 07:21:27 r, 11.94m,0000001408Hz,0000000000c,0000000.000s, 011.6C,00002191
2014-11-22 07:31:30 r, 10.01m,0000008420Hz,0000000000c,0000000.000s, 011.6C,00002191
2014-11-22 07:41:28 r, 08.45m,0000035555Hz,0000000000c,0000000.000s, 011.6C,00002191
2014-11-22 07:51:30 r, 07.47m,0000086984Hz,0000000000c,0000000.000s, 011.2C,00002191
2014-11-22 08:01:27 r, 06.77m,0000166214Hz,0000000000c,0000000.000s, 011.2C,00002191
2014-11-22 08:11:29 r, 06.26m,0000264929Hz,0000000000c,0000000.000s, 011.2C,00002191
2014-11-22 08:21:27 r, 06.03m,0000327977Hz,0000000000c,0000000.000s, 011.2C,00002191
2014-11-22 08:31:28 r, 00.00m,0000444588Hz,0000000000c,0000000.000s, 011.2C,00002191
2014-11-22 08:41:27 r, 00.00m,0000498718Hz,0000000000c,0000000.000s, 011.2C,00002191
2014-11-22 08:51:28 r, 00.00m,0000596277Hz,0000000000c,0000000.000s, 011.2C,00002191
2014-11-22 09:01:27 r, 00.00m,0000596370Hz,0000000000c,0000000.000s, 011.2C,00002191
2014-11-22 09:11:28 r, 00.00m,0000596325Hz,0000000000c,0000000.000s, 011.2C,00002191
2014-11-22 09:21:27 r, 00.00m,0000596226Hz,0000000000c,0000000.000s, 011.6C,00002191
2014-11-22 09:31:30 r, 00.00m,0000596334Hz,0000000000c,0000000.000s, 011.9C,00002191
2014-11-22 09:41:27 r, 00.00m,0000596420Hz,0000000000c,0000000.000s, 011.9C,00002191
2014-11-22 09:51:29 r, 00.00m,0000596279Hz,0000000000c,0000000.000s, 012.2C,00002191
2014-11-22 10:01:27 r, 00.00m,0000596270Hz,0000000000c,0000000.000s, 012.2C,00002191
2014-11-22 10:11:28 r, 00.00m,0000596235Hz,0000000000c,0000000.000s, 012.5C,00002191
2014-11-22 10:21:27 r, 00.00m,0000596164Hz,0000000000c,0000000.000s, 013.2C,00002191
2014-11-22 10:31:28 r, 00.00m,0000596144Hz,0000000000c,0000000.000s, 013.2C,00002191
2014-11-22 10:41:27 r, 00.00m,0000596120Hz,0000000000c,0000000.000s, 013.2C,00002191
2014-11-22 10:51:27 r, 00.00m,0000596219Hz,0000000000c,0000000.000s, 013.5C,00002191
2014-11-22 11:01:27 r, 00.00m,0000596174Hz,0000000000c,0000000.000s, 013.8C,00002191
2014-11-22 11:11:27 r, 00.00m,0000596210Hz,0000000000c,0000000.000s, 013.8C,00002191
2014-11-22 11:21:27 r, 00.00m,0000596048Hz,0000000000c,0000000.000s, 013.8C,00002191
2014-11-22 11:31:30 r, 00.00m,0000596061Hz,0000000000c,0000000.000s, 013.8C,00002191
2014-11-22 11:41:27 r, 00.00m,0000596160Hz,0000000000c,0000000.000s, 013.8C,00002191
2014-11-22 11:51:29 r, 00.00m,0000596031Hz,0000000000c,0000000.000s, 014.1C,00002191
2014-11-22 12:01:27 r, 00.00m,0000596042Hz,0000000000c,0000000.000s, 014.5C,00002191
2014-11-22 12:11:28 r, 00.00m,0000596031Hz,0000000000c,0000000.000s, 014.1C,00002191
2014-11-22 12:21:27 r, 00.00m,0000595954Hz,0000000000c,0000000.000s, 014.5C,00002191
2014-11-22 12:31:28 r, 00.00m,0000596066Hz,0000000000c,0000000.000s, 014.8C,00002191
2014-11-22 12:41:27 r, 00.00m,0000596070Hz,0000000000c,0000000.000s, 014.8C,00002191
2014-11-22 12:51:30 r, 00.00m,0000596113Hz,0000000000c,0000000.000s, 014.5C,00002191
2014-11-22 13:01:27 r, 00.00m,0000596096Hz,0000000000c,0000000.000s, 014.1C,00002191
2014-11-22 13:11:29 r, 00.00m,0000596070Hz,0000000000c,0000000.000s, 014.1C,00002191
2014-11-22 13:21:27 r, 00.00m,0000596014Hz,0000000000c,0000000.000s, 014.8C,00002191
2014-11-22 13:31:33 r, 00.00m,0000595886Hz,0000000000c,0000000.000s, 015.7C,00002191
2014-11-22 13:41:27 r, 00.00m,0000596028Hz,0000000000c,0000000.000s, 015.7C,00002191
2014-11-22 13:51:28 r, 00.00m,0000595955Hz,0000000000c,0000000.000s, 014.8C,00002191
2014-11-22 14:01:27 r, 00.00m,0000596053Hz,0000000000c,0000000.000s, 014.8C,00002191
2014-11-22 14:11:28 r, 00.00m,0000596092Hz,0000000000c,0000000.000s, 014.8C,00002191
2014-11-22 14:21:27 r, 00.00m,0000596056Hz,0000000000c,0000000.000s, 014.1C,00002191
2014-11-22 14:31:28 r, 00.00m,0000596156Hz,0000000000c,0000000.000s, 013.8C,00002191
2014-11-22 14:41:28 r, 00.00m,0000596155Hz,0000000000c,0000000.000s, 013.5C,00002191
2014-11-22 14:51:30 r, 00.00m,0000596128Hz,0000000000c,0000000.000s, 013.2C,00002191
2014-11-22 15:01:27 r, 00.00m,0000596092Hz,0000000000c,0000000.000s, 013.2C,00002191
2014-11-22 15:11:29 r, 00.00m,0000596168Hz,0000000000c,0000000.000s, 013.2C,00002191
2014-11-22 15:21:27 r, 00.00m,0000596064Hz,0000000000c,0000000.000s, 013.2C,00002191
2014-11-22 15:31:28 r, 00.00m,0000596084Hz,0000000000c,0000000.000s, 013.2C,00002191
2014-11-22 15:41:28 r, 00.00m,0000596213Hz,0000000000c,0000000.000s, 013.2C,00002191
2014-11-22 15:51:28 r, 00.00m,0000596275Hz,0000000000c,0000000.000s, 013.2C,00002191
2014-11-22 16:01:27 r, 05.98m,0000344051Hz,0000000000c,0000000.000s, 013.2C,00002191
2014-11-22 16:11:28 r, 06.21m,0000278389Hz,0000000000c,0000000.000s, 012.8C,00002191
2014-11-22 16:21:27 r, 06.39m,0000233614Hz,0000000000c,0000000.000s, 012.5C,00002191
2014-11-22 16:31:30 r, 06.61m,0000191066Hz,0000000000c,0000000.000s, 012.8C,00002191
2014-11-22 16:41:28 r, 07.92m,0000057165Hz,0000000000c,0000000.000s, 012.8C,00002191
2014-11-22 16:51:30 r, 09.12m,0000019004Hz,0000000000c,0000000.000s, 012.5C,00002191
2014-11-22 17:01:27 r, 10.82m,0000003962Hz,0000000000c,0000000.000s, 012.5C,00002191
2014-11-22 17:11:28 r, 12.81m,0000000634Hz,0000000000c,0000000.000s, 012.5C,00002191
2014-11-22 17:21:27 r, 14.62m,0000000120Hz,0000003869c,0000000.008s, 012.5C,00002191
2014-11-22 17:31:28 r, 16.19m,0000000028Hz,0000016506c,0000000.036s, 012.5C,00002191
2014-11-22 17:41:27 r, 17.57m,0000000008Hz,0000058390c,0000000.127s, 012.5C,00002191
2014-11-22 17:51:28 r, 18.54m,0000000003Hz,0000143878c,0000000.312s, 012.5C,00002191
2014-11-22 18:01:27 r, 19.28m,0000000002Hz,0000280386c,0000000.608s, 012.5C,00002191
2014-11-22 18:11:29 r, 18.78m,0000000002Hz,0000176612c,0000000.383s, 012.5C,00002191
2014-11-22 18:21:27 r, 18.66m,0000000003Hz,0000159317c,0000000.346s, 012.5C,00002191
2014-11-22 18:31:29 r, 18.53m,0000000003Hz,0000143148c,0000000.311s, 012.5C,00002191
2014-11-22 18:41:29 r, 18.73m,0000000002Hz,0000168856c,0000000.366s, 012.5C,00002191
2014-11-22 18:51:30 r, 19.00m,0000000002Hz,0000216790c,0000000.470s, 012.5C,00002191
2014-11-22 19:01:27 r, 18.63m,0000000003Hz,0000156479c,0000000.340s, 012.8C,00002191
2014-11-22 19:11:28 r, 18.36m,0000000004Hz,0000121112c,0000000.263s, 012.8C,00002191
2014-11-22 19:21:27 r, 18.36m,0000000004Hz,0000121679c,0000000.264s, 013.2C,00002191
2014-11-22 19:31:27 r, 18.40m,0000000003Hz,0000125749c,0000000.273s, 013.2C,00002191
2014-11-22 19:41:29 r, 18.54m,0000000003Hz,0000143848c,0000000.312s, 013.2C,00002191
2014-11-22 19:51:27 r, 18.62m,0000000003Hz,0000153813c,0000000.334s, 013.5C,00002191
2014-11-22 20:01:28 r, 18.62m,0000000003Hz,0000154592c,0000000.335s, 013.5C,00002191
2014-11-22 20:11:28 r, 18.69m,0000000003Hz,0000163983c,0000000.356s, 013.8C,00002191
2014-11-22 20:21:27 r, 18.75m,0000000002Hz,0000173667c,0000000.377s, 013.5C,00002191
2014-11-22 20:31:29 r, 18.80m,0000000002Hz,0000181295c,0000000.393s, 013.5C,00002191
2014-11-22 20:41:31 r, 19.01m,0000000002Hz,0000219851c,0000000.477s, 013.5C,00002191
2014-11-22 20:51:27 r, 19.17m,0000000002Hz,0000253430c,0000000.550s, 013.2C,00002191
2014-11-22 21:01:30 r, 18.70m,0000000003Hz,0000166888c,0000000.362s, 013.2C,00002191
2014-11-22 21:11:27 r, 18.58m,0000000003Hz,0000147988c,0000000.321s, 013.2C,00002191
2014-11-22 21:21:28 r, 18.50m,0000000004Hz,0000137298c,0000000.298s, 012.8C,00002191
2014-11-22 21:31:27 r, 18.53m,0000000004Hz,0000141930c,0000000.308s, 012.8C,00002191
2014-11-22 21:41:28 r, 18.49m,0000000003Hz,0000136388c,0000000.296s, 012.8C,00002191
2014-11-22 21:51:28 r, 18.78m,0000000003Hz,0000177640c,0000000.386s, 013.2C,00002191
2014-11-22 22:01:28 r, 18.94m,0000000002Hz,0000205445c,0000000.446s, 013.2C,00002191
2014-11-22 22:11:27 r, 18.58m,0000000003Hz,0000148002c,0000000.321s, 013.2C,00002191
2014-11-22 22:21:28 r, 18.51m,0000000003Hz,0000140170c,0000000.304s, 013.5C,00002191
2014-11-22 22:31:27 r, 18.50m,0000000004Hz,0000138194c,0000000.300s, 013.8C,00002191
2014-11-22 22:41:29 r, 18.70m,0000000003Hz,0000165140c,0000000.358s, 013.8C,00002191
2014-11-22 22:51:27 r, 18.73m,0000000003Hz,0000170787c,0000000.371s, 014.1C,00002191
2014-11-22 23:01:29 r, 18.98m,0000000002Hz,0000213348c,0000000.463s, 014.1C,00002191
2014-11-22 23:11:27 r, 18.78m,0000000002Hz,0000178475c,0000000.387s, 014.5C,00002191
2014-11-22 23:21:30 r, 18.63m,0000000003Hz,0000155524c,0000000.338s, 014.5C,00002191
2014-11-22 23:31:27 r, 18.69m,0000000003Hz,0000164817c,0000000.358s, 014.8C,00002191
2014-11-22 23:41:28 r, 18.89m,0000000003Hz,0000196744c,0000000.427s, 015.1C,00002191
2014-11-22 23:51:27 r, 18.76m,0000000003Hz,0000174771c,0000000.379s, 015.1C,00002191
